User: anonymous   Login
Location: Asheville, NC
(35.6000°N, 82.5500°W)
Time: 04:38:48
(UTC-05:00)
Language:

ZACube-1 - Orbit

View from above orbital plane
View from above orbital plane
View from above satellite
View from above satellite

Ground track
Ground track

The orbit data is extracted from the following two-line orbital elements,

1 39417U 13066B   18022.63813378  .00000210  00000-0  33118-4 0  9995
2 39417  97.6044  58.9219 0057696 271.8478  87.6128 14.80863563225252
Epoch (UTC): 22 January 2018 15:18:54
Eccentricity: 0.0057696
inclination: 97.6044°
perigee height: 586 km
apogee height: 667 km
right ascension of ascending node: 58.9219°
argument of perigee: 271.8478°
revolutions per day: 14.80863563
mean anomaly at epoch: 87.6128°
orbit number at epoch: 22525

The dashed part of the orbit path shows where the satellite is in the earth's shadow,  

DLR